This demonstration page uses our WeatherBlox Daily Observations layout. Learn more.

39.01783, -85.05884

Hourly Observations for August 10, 2018

Temp ( °F °C ) Dew Point ( °F °C ) Humidity (%) Winds ( mph kmh ) Pressure ( in mb ) Visibility ( mi km ) Precip ( " mm )
12:52 am 00:52 Mostly Clear 24 -4.4 17 -8.3 75 75 N 12 19 30.21 1023 9 14.484096 0 0
1:52 am 01:52 Clear 24 -4.4 18 -7.8 77 77 NNE 10 17 30.21 1023 9 14.484096 0 0
2:52 am 02:52 Clear 22 -5.6 17 -8.3 82 82 N 6 9 30.21 1023 8 12.874752 0 0
3:52 am 03:52 Clear 21 -6.1 17 -8.3 85 85 N 8 13 30.21 1023 7 11.265408 0 0
4:52 am 04:52 Clear with Mist and Fog 21 -6.1 17 -8.3 85 85 N 7 11 30.21 1023 6 9.656064 0 0
5:52 am 05:52 Clear with Mist and Fog 19 -7.2 16 -8.9 88 88 N 8 13 30.24 1024 5 8.04672 0 0
6:52 am 06:52 Clear with Mist and Fog 20 -6.7 17 -8.3 89 89 N 6 9 30.24 1024 6 9.656064 0 0
7:52 am 07:52 Partly Cloudy with Mist and Fog 18 -7.8 15 -9.4 88 88 N 8 13 30.24 1024 4 6.437376 0 0
8:52 am 08:52 Sunny with Mist and Fog 22 -5.6 18 -7.8 85 85 N 3 6 30.27 1025 6 9.656064 0 0
9:52 am 09:52 Hazy 26 -3.3 20 -6.7 78 78 N 5 7 30.27 1025 6 9.656064 0 0
10:52 am 10:52 Hazy 30 -1.1 23 -5 75 75 NNE 5 7 30.27 1025 6 9.656064 0 0
11:52 am 11:52 Sunny 33 0.6 22 -5.6 64 64 NNE 6 9 30.27 1025 7 11.265408 0 0
12:52 pm 12:52 Sunny 35 1.7 22 -5.6 59 59 VRB 5 7 30.24 1024 7 11.265408 0 0
1:52 pm 13:52 Sunny 35 1.7 22 -5.6 59 59 N 8 13 30.24 1024 7 11.265408 0 0
2:52 pm 14:52 Hazy 34 1.1 23 -5 64 64 N 9 15 30.24 1024 6 9.656064 0 0
3:52 pm 15:52 Hazy 31 -0.6 22 -5.6 69 69 NNW 8 13 30.24 1024 6 9.656064 0 0
4:52 pm 16:52 Hazy 29 -1.7 21 -6.1 72 72 NNW 6 9 30.24 1024 5 8.04672 0 0
5:52 pm 17:52 Hazy 26 -3.3 20 -6.7 78 78 N 5 7 30.24 1024 6 9.656064 0 0
6:52 pm 18:52 Hazy 25 -3.9 19 -7.2 78 78 NNW 6 9 30.27 1025 6 9.656064 0 0
7:52 pm 19:52 Hazy 23 -5 18 -7.8 81 81 N 7 11 30.27 1025 5 8.04672 0 0
8:52 pm 20:52 Clear with Mist and Fog 22 -5.6 18 -7.8 85 85 NNW 5 7 30.27 1025 5 8.04672 0 0
9:52 pm 21:52 Clear with Mist and Fog 21 -6.1 18 -7.8 88 88 Calm 30.27 1025 5 8.04672 0 0
10:52 pm 22:52 Clear with Mist and Fog 18 -7.8 16 -8.9 92 92 Calm 30.24 1024 4 6.437376 0 0
11:52 pm 23:52 Clear with Mist and Fog 18 -7.8 15 -9.4 88 88 WNW 6 9 30.24 1024 5 8.04672 0 0

Powered by AerisWeather